Wind_Speed
21 20 17 14 13 15 17 19 20 19 19 18 16 15 16 17 19 20 21 21 20 20 19 19 19 19 19 19 19 18 18 18 18 18 19 19 19 20 20 20 21 22 23 24 25 26 26 27 28 28 29 30 31 32 33 35 36 37 38 38 39 40 41 42 45 45 40 39 40 39 40 42 42 40 40 41 41 42 43 43 43 43 42 42 40
23 22 20 16 14 14 16 19 20 20 20 19 17 17 18 20 20 21 22 23 23 22 21 22 21 22 22 21 21 20 20 20 19 19 19 20 20 20 20 20 21 22 23 24 25 27 27 28 29 30 30 31 31 32 33 34 36 37 38 40 40 40 42 43 45 46 44 40 40 40 40 43 44 42 40 40 40 40 42 42 42 42 42 43 43
23 24 24 21 18 15 15 17 18 18 18 18 18 19 20 22 22 22 23 24 24 24 23 24 24 24 24 24 23 23 23 22 22 21 21 21 22 22 22 23 23 24 25 26 27 28 29 29 30 32 32 33 32 33 34 35 36 37 38 40 41 41 42 44 46 47 46 43 41 41 41 42 44 44 43 42 41 40 41 41 41 42 42 43 44
23 24 26 25 23 19 17 17 18 19 19 19 20 21 22 23 23 23 24 25 25 26 26 25 26 26 26 26 26 26 26 25 25 24 24 24 24 24 25 25 26 26 27 28 29 29 30 30 31 33 34 35 35 35 35 36 36 38 39 40 41 42 42 44 46 47 47 45 42 42 42 42 43 44 45 46 45 44 43 41 40 41 41 42 43
23 23 25 26 27 25 23 21 21 21 22 22 23 23 24 25 25 25 26 26 27 27 27 28 28 28 28 28 28 28 28 28 28 27 27 26 27 27 27 28 28 29 29 30 30 31 31 32 32 33 35 36 36 37 37 38 38 39 39 40 41 43 43 44 45 46 48 47 44 42 43 43 42 42 42 44 46 47 47 45 42 40 40 41 42
24 25 25 27 29 30 28 26 25 25 25 25 26 26 27 27 27 27 27 27 28 29 30 30 30 30 29 29 29 30 30 30 30 30 29 29 30 30 30 31 31 31 31 31 32 32 33 34 34 35 36 37 37 38 38 39 40 41 41 41 41 43 44 44 45 46 47 47 45 43 43 44 43 42 41 42 43 44 46 47 46 44 42 41 41
26 26 25 27 29 31 31 29 28 28 29 29 29 29 29 29 29 29 29 28 29 30 31 32 32 32 31 31 31 31 31 31 31 32 32 32 32 33 33 33 33 33 34 34 34 35 35 36 36 36 37 38 38 38 39 40 41 42 43 43 43 43 44 45 46 47 47 47 45 43 43 44 44 43 42 42 43 41 40 42 45 46 44 42 39
29 27 27 28 29 30 32 31 31 32 34 34 33 33 32 31 32 32 31 30 30 31 32 33 34 34 34 33 33 33 33 33 33 33 34 34 35 35 35 35 36 36 36 36 37 37 37 37 36 36 36 38 39 39 39 40 41 42 43 44 44 44 45 45 46 47 48 47 45 43 43 44 44 44 43 43 44 41 38 38 40 42 43 43 39
32 32 32 32 32 33 33 33 34 36 38 39 38 37 35 34 34 34 32 31 31 32 33 34 35 35 36 35 35 35 35 34 35 35 35 36 36 36 37 37 38 39 40 40 39 39 38 38 38 38 37 38 39 39 40 40 41 42 42 43 45 46 46 46 46 46 47 48 47 45 43 43 43 43 43 44 45 43 40 39 39 38 41 43 41
35 36 37 37 37 36 36 36 36 37 42 47 46 41 38 37 36 35 34 33 33 33 34 36 36 37 37 37 37 37 37 37 37 36 36 36 37 37 38 39 41 42 42 42 41 40 40 40 40 40 40 40 40 41 41 41 42 42 42 42 44 45 46 47 46 46 46 48 48 46 45 44 42 42 42 43 46 45 42 41 40 38 39 43 43
39 41 42 42 41 40 39 40 42 43 48 52 49 42 39 37 35 34 35 35 34 35 35 37 37 37 37 38 38 39 39 39 38 38 37 37 38 39 40 41 42 43 44 44 43 42 42 42 42 42 42 43 43 43 43 43 43 44 44 43 43 44 46 46 47 46 47 47 47 47 47 46 42 41 41 42 45 47 46 44 43 40 40 43 44
39 41 43 44 44 43 43 43 45 47 49 51 50 43 38 35 35 35 37 37 36 36 37 36 37 37 38 39 40 40 40 39 39 39 39 39 40 41 42 42 43 43 44 45 45 45 44 44 44 44 44 45 45 45 45 45 44 45 45 45 45 45 45 46 47 47 47 48 47 47 47 46 44 42 42 41 43 46 48 48 46 44 42 42 44
40 41 42 43 43 43 43 44 45 45 44 45 46 43 39 36 37 38 38 39 38 37 36 36 37 38 39 41 41 41 41 40 40 41 41 41 42 42 43 43 44 44 45 46 47 47 46 46 46 46 46 46 47 47 47 46 46 45 46 46 46 46 47 47 47 47 48 49 49 48 46 45 45 43 42 42 42 44 49 51 51 49 46 44 44
43 45 45 45 44 42 41 41 42 43 41 38 38 40 40 39 40 41 41 41 38 36 36 37 38 40 41 42 42 42 42 41 41 42 42 43 43 44 44 45 45 46 46 47 48 48 48 48 47 47 47 47 47 47 48 47 47 46 46 46 47 47 48 48 49 49 49 49 50 49 46 45 46 44 43 43 43 44 46 51 54 53 50 48 46
43 46 47 48 47 45 43 41 40 41 39 36 35 37 40 41 43 45 45 42 38 37 37 38 39 41 42 42 42 42 42 42 42 43 44 44 45 45 46 47 47 47 47 48 49 49 49 49 49 48 48 47 47 47 47 47 47 47 47 47 47 47 48 49 49 49 49 50 50 50 48 46 47 46 44 44 45 45 45 48 53 56 54 52 49
44 45 47 48 48 47 45 44 43 42 41 39 38 38 40 44 47 48 46 42 39 38 38 39 40 41 41 42 42 43 42 42 43 44 45 45 46 47 47 48 48 48 49 49 49 50 50 51 51 50 49 48 47 47 47 47 47 47 47 47 47 48 48 48 49 50 50 50 50 50 49 48 48 48 47 46 46 46 45 46 50 55 57 56 52
46 47 48 48 48 46 45 45 44 43 43 41 39 39 42 46 48 48 45 42 39 38 38 39 39 40 41 42 42 42 42 43 44 45 45 46 47 48 48 49 50 50 50 50 51 51 52 52 52 52 51 50 48 47 47 47 48 48 48 48 48 48 48 48 49 50 51 51 51 51 51 50 49 50 49 49 48 47 47 47 47 51 56 58 56
46 48 48 47 45 44 43 43 42 42 43 41 39 39 43 45 47 47 44 40 38 38 39 38 38 39 41 41 42 42 43 44 44 44 45 46 47 48 50 51 51 52 52 52 52 52 52 52 52 52 52 51 50 49 48 48 49 49 49 50 51 50 49 48 49 51 52 54 54 54 53 52 51 51 50 50 50 50 49 49 47 47 52 56 57
44 45 45 45 43 41 41 41 40 40 43 43 41 41 43 44 44 42 39 37 38 39 38 38 38 39 40 40 41 42 43 44 44 44 45 46 47 49 50 51 52 52 52 53 53 53 52 52 52 52 52 51 51 51 50 50 51 51 52 53 53 52 51 50 51 52 54 56 56 57 57 55 54 53 52 51 52 53 52 50 48 48 50 52 55
43 42 42 43 42 40 40 38 37 40 44 46 45 43 41 40 39 38 36 36 37 37 37 37 37 38 38 39 40 42 43 44 44 44 44 45 46 48 49 51 52 52 52 53 53 53 52 52 52 51 51 51 51 52 52 52 53 54 55 56 56 54 53 53 53 55 56 57 58 58 59 58 57 56 54 53 53 54 54 52 50 49 49 49 51
43 41 41 40 40 41 39 35 36 42 46 45 42 38 36 36 35 35 34 34 34 34 34 34 35 35 36 38 39 40 41 42 42 43 43 44 45 46 48 49 50 51 52 53 53 53 53 53 52 52 52 52 52 52 52 53 54 55 57 58 58 57 56 56 57 57 58 59 59 60 60 60 60 59 57 55 54 54 55 55 52 50 49 49 49
42 41 40 40 41 41 38 35 39 43 42 39 37 34 33 32 31 30 29 30 30 31 31 31 32 33 34 36 37 38 38 39 40 41 42 42 43 45 47 48 49 51 53 54 54 55 55 55 55 54 54 54 54 54 54 53 54 55 57 58 59 59 59 60 60 60 60 61 61 61 61 61 61 60 59 57 55 55 56 56 54 52 50 50 49
40 40 40 40 39 38 36 37 41 42 39 36 35 31 27 24 24 24 25 26 26 27 27 29 30 31 32 33 34 35 36 37 38 40 41 42 43 44 46 47 49 51 53 55 56 56 56 56 56 56 56 56 56 55 55 55 56 56 57 58 60 60 61 62 62 63 63 63 63 63 63 62 62 61 60 58 56 56 57 57 56 54 52 50 50
38 38 37 35 34 35 38 39 39 37 34 32 27 22 18 18 19 20 21 22 23 24 25 27 28 29 30 31 32 33 34 35 37 39 40 41 42 43 45 47 48 50 53 54 55 56 56 57 57 57 57 58 58 58 58 58 58 57 57 58 59 60 61 63 64 64 64 64 64 64 64 63 63 62 60 59 57 56 58 59 58 56 54 51 49
35 34 31 30 31 34 35 34 30 26 23 21 17 14 14 15 16 17 18 19 21 22 24 25 26 27 28 29 30 31 32 34 36 37 38 40 41 42 44 46 47 48 51 52 54 55 56 57 57 58 58 58 57 57 57 56 55 54 54 54 55 57 58 59 60 60 61 61 61 61 61 60 60 59 57 57 57 56 58 59 58 57 55 51 49
27 27 28 31 33 32 30 26 20 16 14 12 10 11 13 14 15 15 16 18 19 20 22 23 24 25 26 27 29 30 31 33 35 37 38 40 41 42 43 44 45 46 48 51 52 53 55 55 55 55 54 53 52 52 51 50 48 47 46 46 47 49 50 50 51 52 53 54 53 52 51 49 49 49 49 51 53 54 55 58 58 57 56 53 50
23 28 33 36 34 30 25 21 17 13 11 9 10 11 12 13 13 14 16 17 18 19 21 22 23 24 25 27 29 30 32 34 36 38 40 41 42 42 43 43 45 46 47 49 50 51 51 50 48 47 46 45 45 45 45 44 42 41 40 40 40 41 41 42 44 45 47 47 45 43 43 43 44 44 43 44 47 48 51 54 56 56 55 53 50
26 30 32 31 28 24 21 18 14 10 9 9 10 11 12 12 13 14 15 16 17 19 20 21 22 24 25 28 30 31 33 35 37 39 41 42 43 43 43 44 45 46 46 47 47 46 44 42 40 38 38 38 39 39 39 39 38 37 35 35 35 36 37 38 40 42 42 42 42 41 41 42 43 42 41 40 41 42 44 49 53 54 53 53 51
27 27 27 24 22 20 17 13 9 7 7 9 10 11 11 12 12 12 13 15 17 18 19 21 22 24 27 29 31 33 35 36 38 40 41 42 43 44 44 45 45 44 43 41 41 39 37 35 34 32 31 31 32 31 31 31 32 31 31 31 32 33 34 34 36 37 37 38 39 38 36 36 37 37 37 37 37 37 38 43 47 49 50 52 52
19 20 19 17 16 14 11 8 7 7 9 10 10 9 9 9 10 11 13 15 17 18 20 22 24 26 27 28 30 32 35 36 38 40 41 42 43 44 44 45 44 41 37 35 35 33 31 30 29 28 27 26 25 25 25 26 27 28 29 30 30 30 31 32 32 32 33 35 36 35 32 32 32 32 33 33 33 33 36 38 41 44 48 51 51
10 10 11 11 12 11 9 8 8 8 7 7 7 7 6 8 10 12 15 17 19 20 22 24 25 25 26 27 28 30 33 36 38 40 42 43 44 44 44 43 41 36 32 31 30 28 27 26 25 24 23 22 22 23 24 25 26 27 27 28 28 28 28 29 29 30 32 33 34 34 33 33 31 31 31 31 30 31 34 36 38 41 46 49 48
10 10 11 12 11 11 9 7 4 2 3 5 5 5 6 8 11 15 17 19 20 20 21 22 22 23 24 26 29 31 34 36 38 40 42 43 43 44 43 41 38 33 30 29 27 24 23 23 23 22 22 22 22 23 24 24 24 24 24 25 25 25 25 26 27 30 32 34 35 35 34 33 31 32 33 33 31 30 33 35 37 40 45 47 46
9 10 10 9 8 7 5 2 1 3 4 5 6 7 8 11 14 17 19 20 20 20 20 20 20 22 24 27 30 32 35 37 39 40 42 42 43 43 41 39 37 33 30 28 25 22 20 20 22 23 23 23 24 24 23 23 21 19 18 18 18 18 18 20 22 23 24 28 32 35 35 33 31 32 34 35 32 31 33 35 37 41 45 45 44
8 8 7 5 5 4 1 2 4 5 6 6 8 9 11 13 16 18 19 19 18 17 18 20 22 24 26 28 30 32 34 37 39 41 42 43 43 43 40 37 35 33 31 29 26 23 21 20 21 22 22 23 23 23 21 19 16 13 12 12 13 14 15 16 17 16 16 18 21 26 31 32 31 31 33 33 32 32 33 34 37 42 44 44 42
8 7 6 5 3 1 2 4 4 6 7 8 9 11 13 15 17 18 18 16 14 14 17 21 23 25 27 29 31 32 34 37 39 41 42 43 43 42 39 35 32 30 29 28 26 24 22 22 22 23 23 22 22 22 20 16 12 9 9 9 10 12 16 18 18 15 14 15 15 16 22 29 31 32 33 33 33 33 33 33 37 41 42 42 41
6 6 5 3 1 2 3 4 5 7 8 9 10 12 13 15 16 16 15 14 12 15 18 21 23 25 28 30 31 33 34 36 39 41 42 42 42 41 38 36 33 30 29 28 27 24 23 22 22 23 23 21 20 20 18 15 12 9 10 12 12 12 15 16 15 13 13 15 14 11 14 22 28 31 31 31 32 31 31 33 37 40 40 40 40
6 6 4 2 1 3 4 5 6 8 9 10 11 12 13 15 14 12 12 11 13 16 20 21 23 25 27 29 31 33 35 36 39 41 41 40 39 39 37 35 33 32 30 28 27 25 23 22 22 23 21 18 18 17 16 16 14 11 12 16 16 13 13 13 13 13 14 14 12 9 8 15 20 22 25 28 29 30 33 37 38 37 37 38 38
5 3 1 1 4 6 6 6 7 8 9 9 10 11 12 12 11 9 10 11 14 17 20 22 24 25 27 30 32 34 36 37 38 40 40 40 39 37 35 34 32 31 30 28 26 24 23 22 22 21 19 16 16 16 16 16 15 14 14 16 15 13 12 13 13 14 13 12 10 8 10 16 20 22 25 27 27 29 33 36 36 35 35 36 37
2 1 4 6 8 8 8 8 7 7 8 8 8 9 9 8 7 8 9 11 14 17 20 22 24 26 28 30 33 36 38 39 40 41 41 41 39 37 35 33 31 30 29 28 26 23 22 21 21 20 18 15 15 16 16 15 14 14 15 16 15 13 12 12 13 13 10 8 10 12 16 21 25 27 27 26 26 29 32 34 35 34 34 35 36
3 6 9 10 10 10 9 9 8 7 7 7 6 6 6 5 7 8 10 11 14 17 20 21 24 26 28 31 34 37 39 41 41 42 42 42 40 38 36 34 32 30 29 28 26 23 20 19 19 18 17 15 14 14 14 14 14 15 15 14 14 12 10 9 11 9 4 4 10 16 24 28 28 26 25 23 25 29 30 29 30 32 32 30 30
6 8 10 11 11 11 10 9 8 6 6 5 4 3 4 5 7 8 9 11 13 16 19 22 24 26 28 31 34 36 39 41 42 42 42 42 42 40 37 35 32 30 28 27 25 22 19 17 17 16 16 15 14 13 12 12 14 15 14 13 13 12 9 7 8 5 4 5 11 22 30 29 23 21 22 23 23 24 25 25 25 26 26 24 22
7 8 10 11 10 9 9 8 6 5 4 4 3 3 5 6 7 8 10 11 13 16 19 21 23 25 27 30 32 35 38 40 41 41 42 42 42 41 38 35 32 30 29 27 26 23 19 17 15 14 14 14 13 12 10 10 13 15 13 11 12 12 10 8 8 9 10 12 18 26 28 23 18 18 21 21 19 19 23 25 21 19 20 18 16
7 8 9 9 7 6 6 4 3 4 4 3 3 3 5 6 7 8 10 11 12 15 17 19 21 24 26 28 31 33 36 38 41 42 42 42 42 42 40 36 33 31 29 27 26 24 21 18 14 12 11 11 12 11 9 7 10 13 12 9 10 13 12 9 10 13 15 18 22 24 23 21 17 14 14 17 19 19 21 21 20 18 17 14 13
8 8 8 7 5 4 3 2 3 4 4 3 3 4 5 6 6 8 9 10 12 14 15 17 19 22 24 26 29 31 34 36 39 41 42 42 42 42 41 39 35 32 29 27 26 25 22 19 15 12 10 9 9 9 7 5 8 11 11 9 12 15 15 12 13 16 18 20 22 22 23 25 22 14 11 17 24 23 19 17 16 16 16 17 16
8 7 7 6 5 3 3 3 3 4 4 4 4 6 7 7 8 9 11 12 14 16 16 17 18 19 22 24 27 29 32 34 37 40 42 42 41 41 42 41 38 34 31 28 26 25 23 21 17 13 9 7 7 7 5 4 7 11 12 12 14 17 16 15 15 16 18 20 21 20 22 25 22 15 11 16 23 22 18 16 15 15 16 18 17
7 7 6 5 5 5 5 4 3 3 5 5 6 8 9 10 10 11 13 15 17 18 19 19 19 19 20 22 24 27 30 32 35 38 40 41 41 41 41 41 40 37 33 30 27 25 24 22 19 15 10 7 5 4 3 6 9 12 14 14 15 15 15 15 16 17 17 18 18 18 19 20 17 13 12 17 20 18 16 16 16 16 17 17 17
8 7 6 5 4 4 4 3 4 5 6 7 8 9 11 11 11 12 14 16 17 18 19 20 20 20 20 20 22 25 28 30 33 36 39 40 41 41 40 40 40 39 36 33 30 27 26 24 22 18 14 8 5 2 2 6 10 13 15 15 15 14 13 14 16 18 19 18 17 16 16 16 13 11 16 21 19 16 15 16 16 16 16 15 15
8 7 5 4 4 3 2 2 3 4 5 6 7 9 11 12 13 15 15 16 18 18 19 19 20 20 20 19 20 23 26 28 31 34 36 39 40 40 39 39 40 39 37 35 33 30 29 27 25 23 19 13 8 3 2 6 10 13 14 14 15 16 16 16 16 17 18 19 18 17 17 16 14 13 17 20 17 14 15 15 15 15 15 15 15
7 6 5 4 3 2 1 1 2 3 4 6 8 9 11 13 14 15 16 16 17 18 19 19 19 20 20 19 18 19 23 26 28 30 33 36 39 40 39 39 39 39 39 37 35 33 31 30 28 25 23 19 14 8 4 5 8 12 14 15 16 18 19 20 19 18 18 18 18 18 18 18 17 16 18 18 16 14 15 15 15 15 15 15 15
6 5 4 3 2 1 1 2 3 4 6 7 8 10 11 13 14 15 16 17 18 18 19 20 20 19 19 18 16 16 19 22 25 28 30 33 36 38 38 37 38 38 38 38 36 34 32 31 29 27 25 23 20 15 8 6 8 10 12 14 15 17 19 21 21 20 18 18 18 18 18 18 18 17 17 16 15 15 15 15 15 15 16 16 17
5 5 4 3 2 1 2 3 5 6 7 8 9 10 11 13 14 16 17 17 18 19 19 20 20 19 19 19 16 14 16 19 23 25 27 30 34 36 36 36 36 36 37 37 36 35 33 32 30 29 26 24 23 20 15 11 10 10 11 13 15 15 16 18 20 21 20 18 18 18 18 17 17 18 18 17 17 16 16 16 16 17 18 20 22
Wind_Direction
266 272 279 281 281 278 271 267 267 270 273 274 275 284 294 304 310 312 310 307 301 295 292 290 288 287 286 285 284 283 281 277 274 270 269 268 268 269 270 271 273 275 277 278 279 280 280 280 279 277 276 274 273 272 271 271 271 271 270 269 269 270 271 271 271 271 267 263 262 258 253 251 250 249 250 250 250 252 253 255 258 261 264 264 262
265 269 274 277 279 279 270 264 265 268 271 272 272 278 286 293 302 307 308 307 302 296 291 289 288 288 288 287 286 285 282 278 276 273 272 271 272 273 273 274 275 277 278 280 281 283 283 283 283 281 279 278 275 273 272 271 270 270 270 269 268 268 270 270 271 272 271 267 265 262 257 253 252 251 251 252 252 254 255 255 256 259 262 264 264
262 264 269 272 273 272 266 262 262 264 268 272 276 280 281 285 292 298 302 303 301 296 291 288 288 288 288 288 287 286 283 280 277 275 274 274 275 276 277 278 279 279 280 280 281 282 283 284 284 284 283 281 279 276 274 271 270 269 269 269 269 268 268 269 270 271 271 269 266 266 262 258 255 253 252 253 254 256 258 257 257 259 261 262 262
256 259 264 268 268 266 263 261 260 262 268 273 277 278 277 279 285 290 294 297 297 295 291 288 287 287 287 288 287 286 285 283 281 279 278 278 277 278 278 279 280 280 281 282 282 282 283 283 284 284 284 284 282 280 277 274 271 269 268 268 268 268 267 268 269 270 271 269 267 267 267 264 260 257 254 254 253 253 255 257 257 259 262 262 260
253 255 259 264 265 263 261 258 257 260 267 271 274 275 273 274 279 283 287 291 291 291 289 287 286 286 286 286 286 285 285 285 284 282 282 281 280 280 280 280 281 281 281 282 282 283 284 284 284 284 284 284 283 282 280 277 274 272 269 267 267 267 267 267 268 269 269 269 267 266 267 267 265 261 257 256 255 252 252 254 255 258 261 262 261
253 254 255 259 262 262 259 256 255 255 259 264 267 267 267 269 273 277 280 282 285 286 286 285 284 283 283 284 284 284 284 284 284 284 283 283 282 282 282 282 282 282 282 282 283 284 285 285 285 283 282 281 281 280 280 279 277 275 273 270 267 266 266 267 268 268 269 269 268 266 266 266 266 263 260 258 258 255 254 254 254 257 260 261 261
248 251 253 256 261 263 261 259 258 255 254 257 259 259 260 264 267 271 273 275 278 281 283 283 283 282 282 282 282 282 282 283 283 283 283 283 283 283 284 284 284 284 284 285 286 287 287 287 286 284 282 281 279 278 277 277 277 276 275 273 271 268 267 266 267 268 269 269 269 267 266 265 264 263 260 258 258 259 259 258 255 254 255 257 259
239 243 248 252 257 261 262 261 261 257 252 252 253 252 253 257 261 265 267 269 273 277 280 282 283 282 281 281 281 281 281 281 281 282 282 283 284 285 286 286 286 286 286 287 287 288 288 287 286 285 284 282 280 278 276 275 275 274 274 273 272 271 269 267 266 267 268 268 268 267 266 265 264 262 260 257 256 257 259 260 257 253 249 249 252
243 243 244 247 250 254 256 257 259 259 254 250 248 246 247 251 256 261 263 265 269 274 278 281 282 282 282 282 282 282 281 281 280 281 282 284 286 287 287 287 287 287 287 287 287 287 287 287 286 286 284 283 281 280 278 275 274 273 272 271 271 271 270 269 267 267 267 268 268 267 266 265 264 262 259 257 255 254 255 257 258 255 250 246 245
252 251 249 249 249 250 251 253 254 254 252 250 245 238 239 245 250 256 260 261 266 271 276 278 279 280 281 282 282 281 281 280 280 281 283 285 286 286 286 286 287 287 287 288 288 287 287 287 286 286 285 284 282 280 278 276 274 273 271 270 269 269 269 269 269 268 267 267 267 267 266 264 263 263 260 256 254 253 252 252 254 255 252 247 243
253 254 255 255 253 251 250 251 252 252 255 259 254 239 234 240 246 252 257 259 264 269 272 274 276 278 279 280 280 280 280 280 281 284 286 286 286 285 285 285 286 287 288 289 288 288 287 287 286 286 285 284 283 280 278 276 274 272 271 269 268 267 267 268 268 268 267 267 266 266 266 265 263 262 261 257 253 251 250 250 250 251 252 250 245
250 251 253 255 254 253 251 251 255 256 260 268 266 250 236 239 245 250 254 257 261 266 269 273 275 276 277 278 278 279 280 281 283 285 285 284 284 284 284 285 286 287 288 288 288 288 287 286 285 285 285 284 283 281 278 275 273 271 270 269 267 266 266 266 266 266 267 267 266 265 265 265 264 262 261 258 254 250 248 247 248 249 249 250 248
253 252 252 254 255 256 256 255 258 262 265 271 269 253 238 239 243 246 251 255 258 263 268 271 274 275 276 277 278 279 281 283 285 285 285 284 284 284 285 286 287 288 288 288 287 286 286 285 284 284 284 283 282 281 279 276 273 270 268 267 266 265 265 264 264 265 265 266 267 266 265 265 264 262 261 259 255 251 247 246 247 248 248 248 248
256 256 256 257 258 260 262 261 261 264 267 272 266 248 238 239 241 243 247 251 255 262 266 269 271 273 274 276 278 281 283 285 286 286 286 286 286 286 287 287 287 287 286 286 286 285 285 285 285 285 284 283 282 280 279 277 275 272 268 266 264 263 263 263 263 264 264 265 266 267 267 266 264 262 260 258 256 252 248 245 245 247 247 246 246
257 257 257 258 259 261 263 263 263 263 265 268 262 248 242 243 244 243 245 249 254 261 264 267 270 272 275 277 280 282 284 286 287 287 287 288 288 288 288 287 287 286 286 286 286 287 287 287 286 286 285 284 282 280 279 277 275 273 271 268 265 263 262 262 263 263 263 264 265 266 266 265 264 262 259 257 256 253 250 247 245 245 246 246 245
257 257 258 258 260 261 261 262 263 263 262 262 258 252 247 246 247 247 247 248 253 258 262 265 269 273 277 279 281 283 286 287 288 288 289 289 289 289 288 287 287 287 287 288 288 288 288 287 287 286 285 283 282 280 279 277 275 273 271 270 268 266 263 263 263 263 263 263 264 265 264 264 263 262 260 258 256 254 251 248 246 244 245 246 245
256 256 257 258 260 261 261 261 260 259 258 257 254 251 248 247 248 249 247 248 251 255 259 264 269 274 277 280 282 285 287 288 289 289 290 290 290 289 289 289 289 289 289 289 289 288 288 287 287 286 285 283 281 279 277 276 274 273 272 270 268 267 265 264 263 263 263 263 262 262 261 260 260 260 260 259 257 255 252 250 247 245 245 245 245
255 256 257 259 261 262 262 262 259 255 253 251 249 248 248 248 248 248 245 247 251 254 259 265 269 273 277 280 284 287 288 289 290 290 291 292 292 291 291 290 290 290 290 289 289 288 287 287 286 285 284 283 281 279 277 274 273 272 271 269 268 266 265 264 263 263 262 262 261 260 259 258 257 257 258 258 259 257 255 252 249 248 247 245 245
256 256 256 258 260 261 263 263 261 256 251 245 242 244 247 247 246 244 243 246 251 255 259 264 268 273 277 282 286 288 289 291 292 293 294 293 293 292 291 291 290 290 290 289 289 288 287 286 285 284 283 282 280 279 277 275 273 271 269 268 266 266 265 264 262 261 260 259 259 259 258 257 256 255 254 255 256 257 257 255 251 248 248 247 246
257 256 255 254 255 258 260 261 259 254 248 243 240 240 241 241 239 240 243 248 253 257 261 265 269 275 280 285 288 289 291 292 292 293 293 292 291 291 290 290 290 290 290 289 289 288 287 286 285 284 283 281 280 278 276 274 272 270 269 267 266 266 265 263 262 260 259 258 258 257 257 257 256 255 253 252 253 254 256 256 253 249 248 248 247
257 255 254 251 251 254 255 255 253 247 238 235 236 235 232 233 235 238 244 250 255 261 265 269 274 279 283 286 288 289 289 290 290 290 290 291 291 292 292 292 292 292 291 290 290 289 288 287 287 285 284 282 280 278 276 274 272 270 268 267 267 266 265 263 262 260 259 258 257 256 256 255 255 254 253 252 251 251 253 255 254 252 249 248 248
257 255 252 249 248 249 250 250 247 239 227 222 225 223 221 227 234 240 247 253 260 266 272 276 280 283 285 285 286 286 286 288 289 290 291 292 293 293 293 293 293 292 292 291 291 290 290 289 288 286 285 283 281 279 276 274 272 270 269 268 267 266 265 264 263 261 260 259 258 257 256 255 254 254 253 252 251 250 250 252 252 251 249 247 247
258 255 252 248 247 248 248 243 235 228 222 221 220 216 217 227 238 246 254 260 268 275 279 282 282 283 282 283 284 285 288 290 291 292 292 292 292 292 292 292 291 291 291 291 290 290 289 288 287 285 284 282 281 279 276 274 271 269 268 267 267 266 265 264 263 262 261 260 259 257 256 255 254 254 253 251 250 249 248 249 248 248 248 246 245
258 254 252 251 250 246 239 228 216 210 212 215 213 215 226 239 248 257 264 270 276 278 279 279 279 279 281 283 286 288 290 291 291 291 291 291 292 292 291 291 290 289 289 289 289 288 287 286 285 284 283 281 280 278 276 274 272 269 268 266 265 265 264 264 263 262 261 260 259 258 257 256 255 254 253 251 249 247 246 246 245 245 245 244 242
252 249 248 247 241 229 216 204 195 193 200 205 210 224 241 254 264 269 271 273 274 274 276 277 280 283 286 289 290 291 291 291 291 292 293 294 294 294 292 291 290 289 289 289 288 288 287 286 285 284 282 281 280 278 276 274 273 271 269 267 265 264 263 263 262 261 260 260 259 259 259 258 258 257 255 252 249 246 244 244 244 242 242 241 239
241 240 236 227 215 203 192 186 186 189 195 205 224 244 257 266 269 267 267 269 272 276 281 285 289 293 295 295 295 296 297 298 299 300 300 299 298 296 294 293 292 292 291 291 290 289 288 287 286 285 283 281 280 278 277 276 274 272 269 266 264 263 262 261 260 259 259 260 260 260 260 260 259 257 255 251 249 245 242 242 241 240 238 237 235
228 221 214 204 193 183 179 181 183 186 195 216 240 253 259 260 258 259 265 273 280 288 295 299 302 303 303 303 305 306 308 308 307 305 304 302 301 299 298 297 297 296 295 294 292 290 289 288 287 285 283 281 279 278 278 277 275 273 269 266 264 262 260 259 258 257 257 258 258 259 259 258 257 255 252 249 246 243 240 239 239 237 235 232 232
197 186 180 177 172 170 174 178 180 189 210 232 244 247 249 251 256 265 276 288 299 305 309 311 311 312 313 314 314 314 313 311 310 309 307 306 305 305 305 304 304 303 300 297 294 292 291 289 287 284 281 279 278 279 279 279 278 276 273 269 266 263 261 258 256 256 256 257 258 259 258 257 256 253 250 247 243 240 237 236 237 235 231 228 229
162 155 153 158 163 169 175 177 181 199 218 229 235 239 246 256 270 285 300 310 315 317 319 320 321 322 322 320 319 317 315 314 313 312 312 312 313 313 312 311 310 308 305 301 298 296 294 292 289 285 281 279 279 281 282 283 283 281 279 277 272 266 261 258 256 256 258 260 260 260 258 256 252 248 245 242 238 236 235 235 236 233 227 225 226
141 144 149 156 159 160 162 164 176 194 208 222 234 245 260 278 298 314 322 326 328 330 331 331 329 327 324 321 319 319 318 318 318 317 318 319 319 318 317 315 314 312 309 304 302 300 298 295 293 290 286 284 283 284 284 284 283 282 281 280 276 269 264 261 260 260 261 262 262 261 258 253 247 242 239 236 233 233 234 236 235 230 223 222 224
108 123 130 133 137 141 148 161 179 197 217 237 250 265 288 311 327 335 337 338 339 339 336 333 329 326 323 322 323 323 324 324 324 324 324 324 322 321 320 318 317 317 314 309 306 304 301 298 296 294 292 291 289 287 285 282 279 276 275 274 274 271 266 264 263 262 260 259 260 259 257 252 244 237 232 230 230 232 234 235 232 225 219 219 221
94 111 125 132 137 144 150 160 179 220 273 281 281 296 323 338 344 346 344 343 341 339 335 332 330 329 329 330 331 332 332 332 332 330 329 327 326 325 324 322 321 321 320 315 312 309 305 302 298 296 294 292 292 290 288 284 280 276 273 271 270 269 268 267 266 263 261 259 257 256 254 250 243 235 227 224 226 231 233 233 227 218 214 216 218
113 129 137 137 136 139 141 134 341 328 322 320 321 332 348 353 350 346 344 343 342 339 336 336 339 341 342 342 341 340 340 339 337 335 333 332 331 330 329 327 326 325 324 320 317 312 305 301 298 296 293 291 291 291 290 288 285 280 275 270 268 268 270 272 271 270 269 265 259 253 248 244 240 233 225 219 222 229 232 229 221 212 210 212 215
132 139 135 124 124 132 133 334 333 330 334 343 345 347 353 354 348 344 342 341 341 342 344 349 353 353 353 351 348 347 346 344 342 340 338 337 336 334 333 331 329 328 326 324 321 314 304 299 300 301 298 292 289 290 290 287 282 276 274 273 271 268 267 271 276 281 285 282 271 255 244 237 232 229 224 219 219 225 228 223 214 207 207 209 212
136 133 122 117 129 162 301 314 326 333 337 346 352 353 352 347 343 341 339 339 343 352 360 2 1 360 359 357 354 353 351 349 347 346 343 340 339 338 336 333 332 331 329 327 325 319 308 301 302 305 303 295 287 287 288 281 269 266 275 279 276 271 269 274 282 285 285 291 291 269 241 229 224 225 226 221 218 221 220 213 205 203 204 207 210
126 123 119 124 159 277 294 311 335 341 341 348 357 355 347 341 339 338 335 338 352 6 9 8 7 5 3 1 359 358 355 354 353 351 347 343 341 341 340 338 336 335 333 330 328 323 315 307 303 305 304 294 283 283 283 271 255 256 271 275 276 278 278 279 287 294 291 290 293 279 239 222 220 222 221 215 212 209 203 197 197 199 202 204 208
113 113 112 111 300 296 305 326 341 342 344 352 355 348 338 334 335 334 333 343 2 12 11 9 9 8 5 3 2 1 359 359 359 355 350 347 345 345 344 343 340 337 335 331 328 323 318 312 307 306 304 292 279 279 278 266 251 249 263 269 271 278 285 281 279 285 289 285 282 274 227 199 197 201 200 198 197 193 188 188 192 195 198 201 206
108 101 86 305 299 305 317 328 335 339 345 350 347 337 329 328 330 336 343 353 6 13 11 7 6 6 5 4 4 3 2 2 2 358 354 352 350 350 349 347 343 340 337 334 330 324 320 317 313 311 306 293 280 277 274 264 252 248 259 267 266 269 283 286 278 277 279 270 257 237 193 175 173 177 178 177 177 180 183 185 187 192 198 205 209
117 265 274 278 289 305 318 324 332 343 348 345 338 328 323 326 340 355 1 3 6 9 8 4 3 3 3 3 4 4 4 4 3 2 360 357 355 354 353 352 349 344 341 339 336 329 323 320 318 315 309 300 289 280 272 263 252 248 256 264 260 257 267 280 278 277 278 259 230 203 176 165 162 161 160 162 170 181 185 184 187 197 207 211 209
247 266 274 285 300 315 324 331 343 350 343 337 334 328 328 346 8 13 12 8 5 4 3 2 1 1 3 4 4 5 5 5 5 5 3 1 359 358 357 356 354 350 347 345 342 335 328 324 320 316 310 304 298 288 274 258 246 245 250 254 252 247 252 265 267 266 271 245 215 182 158 151 150 149 153 164 177 184 186 189 198 208 209 205 200
260 275 293 311 323 331 337 347 355 349 333 328 334 345 7 19 19 18 17 12 6 3 2 1 0 0 2 4 5 6 6 5 5 6 6 5 3 2 1 359 358 356 353 351 347 342 335 329 323 316 308 301 298 295 281 257 242 241 244 242 237 232 230 241 243 219 152 164 177 159 146 142 143 148 159 171 179 185 192 201 207 201 188 177 173
271 291 310 320 327 337 350 359 355 334 322 327 341 14 30 25 17 17 17 13 7 5 3 1 360 359 0 3 5 6 7 6 5 6 8 8 7 5 3 2 1 0 359 357 355 351 345 337 329 320 307 297 295 297 290 263 241 237 239 235 222 210 203 205 199 171 150 150 155 150 145 145 149 157 170 183 189 190 195 197 188 169 158 156 159
283 303 312 316 326 346 0 356 323 308 315 332 354 13 19 14 9 9 8 5 2 1 359 359 359 357 358 360 2 4 6 6 6 7 8 9 9 8 6 5 5 5 4 3 2 359 354 346 339 330 316 303 297 298 296 271 240 231 231 223 200 186 180 178 175 170 163 158 157 156 156 158 163 171 183 187 180 173 175 175 163 149 151 164 176
293 304 304 304 315 334 335 302 293 303 316 328 340 345 348 351 356 358 356 354 355 353 351 352 354 355 355 356 359 2 4 6 7 7 9 10 11 10 9 8 8 8 9 9 8 6 3 356 350 344 336 322 306 296 291 267 226 216 213 200 180 173 171 172 174 175 172 166 165 168 169 169 174 189 196 177 167 163 161 159 154 151 160 173 182
286 285 280 284 291 283 268 277 293 299 295 295 303 316 328 340 349 353 352 351 352 351 349 349 350 351 351 352 355 359 2 4 6 7 8 10 12 12 11 10 10 11 13 14 14 14 11 7 2 358 352 340 318 297 276 231 201 195 191 180 168 165 169 176 180 181 178 173 172 178 179 178 186 206 207 176 166 164 159 151 149 155 166 175 182
263 258 256 265 267 253 249 265 286 286 286 294 307 318 327 336 343 346 347 347 347 347 349 349 348 348 347 349 352 357 360 2 4 6 7 8 11 13 13 12 12 13 15 16 18 20 19 16 12 8 5 359 341 308 245 200 185 178 172 166 160 161 170 182 187 187 187 183 179 179 182 187 197 205 186 164 158 158 154 148 148 156 166 174 182
234 238 246 258 260 252 254 278 295 294 297 306 316 321 325 332 339 343 344 345 344 343 344 345 346 345 344 345 349 354 357 360 3 5 5 7 9 12 14 14 14 15 17 18 20 23 25 24 22 20 19 18 10 357 176 174 173 167 161 159 163 169 177 186 189 190 193 194 188 180 182 192 200 188 167 159 156 154 153 152 154 160 168 176 183
221 231 244 256 263 263 276 305 308 303 307 315 321 324 329 336 343 345 345 345 344 343 343 343 343 342 341 342 347 352 354 357 1 3 4 5 8 11 13 15 15 16 19 20 21 24 27 28 28 28 28 30 32 42 117 148 154 156 154 157 164 170 173 175 176 177 184 191 190 181 179 185 188 178 168 166 164 161 163 166 168 171 177 183 186
220 228 234 234 238 245 272 331 334 331 332 334 335 336 339 342 343 343 343 343 344 345 345 345 345 344 342 340 345 351 352 354 358 2 3 4 6 9 12 14 15 17 19 22 23 24 27 29 30 31 32 35 39 46 77 123 134 142 148 153 158 162 164 164 162 161 164 170 172 168 168 170 170 165 164 166 168 170 174 178 178 177 180 184 183
223 226 221 212 213 230 323 351 348 347 348 347 345 343 343 343 342 343 344 344 344 345 346 346 347 347 345 343 345 349 349 351 356 2 4 5 6 8 10 13 15 17 19 22 24 25 27 28 31 34 36 38 41 44 59 98 120 130 139 145 150 155 158 159 158 158 158 156 153 151 153 158 161 162 164 167 171 176 178 177 175 173 173 173 171
220 217 214 216 233 289 329 341 343 344 345 345 344 343 343 343 344 344 343 343 342 342 343 343 344 347 349 349 347 344 344 348 354 360 4 7 7 7 9 13 14 16 19 22 24 27 28 29 31 34 38 42 44 46 52 70 94 114 129 137 141 147 153 154 153 154 156 155 151 148 149 154 161 167 170 170 170 170 168 165 161 159 159 160 161
Height
3101 3101 3102 3101 3101 3101 3101 3101 3101 3101 3101 3101 3102 3101 3101 3100 3100 3099 3098 3098 3097 3096 3096 3096 3095 3095 3095 3095 3094 3094 3094 3094 3094 3094 3094 3094 3094 3094 3094 3094 3094 3094 3094 3093 3093 3093 3093 3093 3092 3092 3092 3092 3092 3092 3092 3092 3091 3091 3091 3090 3090 3089 3088 3086 3084 3084 3090 3093 3092 3094 3095 3094 3094 3096 3097 3098 3099 3099 3100 3101 3102 3102 3103 3105 3107
3098 3099 3100 3100 3099 3099 3099 3099 3099 3099 3099 3099 3099 3099 3098 3098 3097 3096 3096 3095 3094 3094 3093 3093 3092 3092 3092 3092 3092 3091 3091 3091 3091 3091 3091 3090 3091 3091 3091 3091 3091 3091 3091 3090 3090 3089 3089 3089 3089 3088 3088 3088 3088 3088 3088 3088 3087 3087 3087 3086 3086 3086 3084 3083 3081 3079 3083 3088 3088 3089 3090 3089 3089 3092 3093 3093 3094 3095 3094 3096 3097 3098 3099 3099 3101
3096 3096 3097 3097 3097 3097 3097 3097 3097 3097 3097 3097 3097 3097 3096 3095 3094 3094 3093 3092 3092 3091 3090 3090 3089 3089 3089 3088 3088 3088 3088 3088 3088 3087 3087 3087 3087 3087 3087 3087 3087 3087 3087 3087 3086 3086 3085 3085 3085 3084 3083 3083 3084 3084 3083 3083 3083 3083 3083 3082 3081 3082 3081 3079 3077 3076 3077 3082 3084 3084 3085 3085 3085 3087 3089 3089 3090 3090 3090 3091 3093 3093 3094 3094 3095
3092 3093 3093 3094 3094 3094 3094 3094 3094 3094 3094 3094 3094 3094 3093 3092 3092 3091 3090 3090 3089 3088 3088 3087 3087 3086 3086 3086 3085 3085 3085 3085 3084 3084 3084 3084 3084 3084 3083 3083 3083 3083 3083 3083 3082 3082 3082 3082 3081 3080 3079 3078 3079 3079 3079 3078 3078 3078 3078 3078 3077 3077 3077 3075 3074 3073 3072 3075 3079 3080 3080 3081 3081 3082 3084 3084 3085 3086 3085 3086 3088 3088 3089 3089 3090
3088 3089 3090 3090 3091 3091 3092 3091 3091 3091 3092 3092 3092 3091 3091 3090 3089 3088 3087 3087 3086 3085 3085 3085 3084 3084 3083 3083 3083 3082 3082 3081 3081 3081 3081 3080 3080 3080 3080 3079 3079 3079 3079 3078 3078 3077 3077 3077 3077 3076 3075 3074 3074 3074 3073 3073 3073 3073 3073 3073 3073 3072 3072 3071 3070 3069 3068 3069 3074 3076 3075 3075 3076 3078 3079 3079 3080 3081 3081 3081 3082 3083 3084 3084 3085
3084 3085 3085 3086 3087 3088 3088 3088 3088 3088 3089 3089 3089 3089 3088 3087 3086 3085 3084 3083 3083 3082 3082 3081 3081 3081 3080 3080 3079 3079 3078 3078 3078 3077 3077 3077 3076 3076 3076 3075 3075 3075 3075 3074 3074 3073 3073 3072 3072 3072 3070 3069 3069 3069 3068 3067 3067 3067 3067 3068 3068 3067 3067 3067 3065 3065 3064 3064 3068 3070 3070 3070 3071 3072 3074 3074 3074 3075 3076 3077 3078 3078 3079 3080 3081
3079 3080 3081 3082 3082 3084 3085 3085 3085 3086 3086 3085 3085 3085 3085 3084 3083 3082 3081 3080 3079 3078 3078 3078 3078 3078 3077 3077 3076 3075 3075 3075 3074 3074 3073 3073 3073 3072 3072 3071 3071 3071 3070 3070 3069 3068 3068 3067 3067 3067 3065 3064 3064 3064 3063 3063 3062 3062 3061 3062 3062 3062 3062 3062 3061 3060 3059 3059 3062 3064 3065 3065 3065 3067 3069 3069 3068 3070 3071 3071 3072 3073 3074 3075 3076
3073 3074 3076 3076 3077 3079 3080 3081 3082 3082 3081 3081 3081 3081 3081 3080 3080 3079 3078 3077 3076 3075 3074 3074 3074 3074 3074 3073 3073 3072 3071 3071 3070 3070 3069 3069 3069 3068 3068 3067 3066 3066 3065 3065 3064 3063 3062 3062 3061 3061 3060 3059 3058 3058 3058 3058 3057 3056 3056 3056 3056 3056 3056 3056 3056 3055 3054 3054 3056 3058 3060 3060 3060 3061 3063 3064 3063 3065 3067 3066 3066 3068 3069 3070 3071
3068 3069 3069 3070 3071 3073 3074 3075 3076 3077 3076 3076 3075 3075 3076 3076 3075 3074 3074 3073 3072 3071 3071 3071 3071 3070 3070 3070 3069 3068 3068 3067 3066 3065 3065 3065 3065 3064 3063 3062 3061 3061 3060 3059 3059 3058 3057 3056 3055 3055 3055 3054 3053 3053 3052 3052 3051 3051 3051 3050 3049 3049 3049 3049 3050 3050 3049 3049 3050 3052 3054 3054 3055 3056 3057 3058 3058 3060 3062 3061 3061 3063 3064 3064 3065
3063 3063 3064 3064 3066 3067 3068 3069 3070 3070 3068 3066 3067 3068 3070 3070 3070 3070 3070 3069 3068 3068 3067 3067 3067 3066 3066 3066 3065 3064 3063 3063 3062 3062 3062 3061 3060 3059 3058 3057 3056 3055 3054 3054 3053 3052 3051 3050 3049 3049 3049 3048 3048 3047 3047 3046 3045 3044 3044 3044 3044 3043 3043 3043 3043 3043 3043 3043 3044 3046 3047 3048 3050 3050 3051 3053 3053 3054 3056 3056 3056 3057 3058 3057 3059
3058 3058 3058 3059 3060 3061 3062 3063 3063 3062 3060 3059 3062 3064 3065 3065 3066 3066 3066 3065 3065 3064 3063 3063 3063 3063 3062 3061 3060 3060 3059 3059 3059 3058 3058 3056 3055 3054 3052 3052 3051 3050 3049 3048 3047 3046 3045 3044 3043 3043 3042 3042 3041 3041 3040 3040 3039 3038 3038 3038 3038 3037 3036 3036 3036 3037 3037 3037 3038 3039 3040 3042 3045 3046 3046 3047 3048 3049 3050 3051 3051 3052 3052 3052 3054
3053 3053 3053 3054 3054 3055 3057 3058 3057 3057 3057 3057 3058 3060 3061 3061 3062 3062 3062 3061 3061 3060 3059 3060 3059 3059 3058 3057 3056 3055 3055 3055 3055 3054 3053 3051 3050 3049 3047 3046 3045 3044 3043 3042 3041 3040 3039 3038 3037 3036 3035 3035 3034 3033 3033 3033 3032 3032 3031 3031 3031 3030 3030 3030 3030 3030 3030 3029 3030 3032 3034 3036 3038 3040 3040 3041 3042 3043 3044 3045 3045 3046 3047 3047 3049
3047 3047 3048 3048 3049 3050 3051 3053 3053 3052 3053 3052 3052 3054 3055 3056 3056 3057 3057 3056 3056 3056 3056 3056 3055 3054 3053 3052 3051 3051 3051 3051 3051 3049 3048 3047 3045 3043 3042 3041 3039 3038 3037 3036 3034 3033 3032 3031 3030 3029 3029 3027 3026 3025 3025 3025 3025 3025 3024 3024 3024 3024 3023 3023 3023 3023 3023 3023 3023 3025 3028 3029 3031 3034 3035 3035 3035 3036 3037 3038 3039 3040 3041 3042 3044
3041 3042 3042 3043 3044 3045 3046 3047 3048 3048 3047 3047 3047 3048 3049 3050 3050 3051 3051 3051 3051 3052 3052 3051 3051 3049 3048 3047 3046 3047 3047 3046 3046 3044 3043 3041 3039 3038 3036 3035 3033 3032 3031 3029 3028 3027 3026 3024 3023 3022 3021 3020 3019 3018 3017 3017 3017 3017 3017 3017 3017 3017 3017 3016 3016 3016 3016 3016 3016 3018 3021 3023 3024 3027 3029 3028 3028 3029 3030 3031 3033 3033 3034 3036 3038
3035 3036 3036 3037 3038 3039 3041 3042 3042 3043 3043 3043 3043 3044 3045 3045 3045 3044 3045 3045 3047 3047 3047 3047 3046 3045 3044 3043 3043 3042 3042 3041 3040 3038 3037 3035 3033 3032 3030 3028 3027 3025 3024 3023 3021 3020 3018 3017 3016 3015 3014 3013 3012 3011 3010 3009 3009 3009 3009 3009 3009 3009 3010 3009 3009 3009 3010 3010 3010 3011 3014 3016 3016 3018 3021 3021 3021 3022 3024 3025 3026 3027 3028 3029 3032
3029 3030 3030 3031 3032 3034 3035 3036 3036 3037 3038 3038 3038 3039 3040 3041 3040 3039 3041 3041 3042 3042 3043 3042 3042 3041 3040 3039 3038 3038 3037 3036 3034 3032 3030 3029 3027 3025 3023 3021 3020 3018 3017 3016 3014 3013 3011 3009 3008 3007 3006 3005 3005 3004 3003 3002 3001 3001 3001 3001 3001 3002 3003 3003 3003 3003 3003 3003 3003 3004 3006 3008 3009 3010 3012 3014 3014 3015 3017 3018 3019 3021 3021 3023 3026
3023 3023 3024 3025 3027 3028 3029 3030 3031 3032 3032 3032 3033 3034 3035 3035 3035 3036 3037 3037 3037 3038 3038 3037 3037 3036 3035 3034 3034 3033 3032 3031 3028 3026 3024 3023 3021 3018 3016 3014 3013 3011 3010 3008 3007 3006 3004 3002 3000 2999 2998 2998 2997 2997 2996 2994 2994 2993 2993 2993 2993 2993 2995 2996 2996 2996 2995 2996 2996 2997 2998 3000 3001 3002 3004 3006 3007 3009 3009 3010 3013 3015 3015 3017 3020
3017 3017 3018 3019 3021 3023 3023 3023 3025 3026 3026 3027 3028 3029 3029 3030 3031 3032 3033 3033 3033 3033 3033 3033 3032 3032 3031 3029 3029 3028 3026 3025 3023 3021 3018 3016 3014 3011 3009 3007 3006 3004 3002 3001 2999 2998 2996 2995 2993 2991 2990 2989 2989 2988 2988 2987 2986 2985 2985 2984 2984 2985 2987 2988 2988 2988 2987 2987 2988 2988 2989 2991 2993 2995 2997 2998 3000 3001 3001 3003 3008 3009 3009 3010 3014
3010 3011 3012 3014 3015 3017 3017 3017 3019 3020 3020 3020 3021 3021 3023 3025 3027 3028 3028 3029 3029 3029 3029 3028 3028 3027 3026 3025 3024 3022 3021 3019 3017 3015 3012 3010 3008 3005 3003 3001 2999 2997 2995 2993 2992 2990 2988 2987 2985 2983 2982 2981 2980 2979 2979 2978 2977 2977 2976 2974 2974 2976 2978 2979 2979 2979 2978 2977 2978 2979 2980 2983 2985 2987 2989 2991 2993 2993 2994 2997 3001 3002 3002 3005 3008
3003 3004 3005 3007 3009 3010 3011 3012 3013 3014 3013 3013 3014 3014 3017 3020 3022 3023 3024 3025 3025 3025 3025 3024 3023 3022 3021 3020 3019 3017 3015 3013 3011 3009 3007 3005 3002 3000 2997 2994 2992 2990 2988 2986 2984 2982 2980 2978 2977 2975 2974 2972 2971 2971 2970 2969 2968 2967 2966 2964 2965 2967 2969 2969 2969 2968 2968 2968 2969 2970 2971 2974 2976 2978 2981 2984 2985 2986 2987 2990 2993 2996 2997 2999 3002
2996 2997 2999 3001 3002 3004 3005 3007 3009 3008 3007 3008 3010 3011 3013 3016 3018 3019 3020 3021 3021 3021 3020 3020 3019 3018 3017 3015 3014 3012 3010 3008 3006 3004 3002 3000 2997 2994 2991 2988 2985 2982 2980 2978 2975 2973 2971 2969 2968 2966 2965 2963 2962 2961 2960 2960 2959 2957 2956 2955 2956 2957 2957 2957 2957 2958 2958 2958 2959 2961 2962 2964 2966 2969 2972 2975 2978 2979 2980 2982 2986 2989 2991 2993 2995
2990 2991 2993 2994 2996 2998 3000 3002 3004 3004 3003 3004 3007 3009 3011 3013 3014 3016 3017 3017 3017 3017 3016 3016 3014 3013 3012 3011 3009 3008 3006 3004 3001 2999 2996 2994 2991 2988 2985 2982 2979 2975 2972 2969 2967 2964 2962 2960 2958 2957 2955 2954 2953 2951 2951 2950 2949 2948 2947 2946 2946 2946 2946 2946 2946 2947 2947 2949 2949 2951 2953 2955 2957 2960 2963 2967 2970 2972 2973 2975 2978 2981 2984 2986 2989
2984 2985 2987 2989 2991 2994 2997 2998 2999 3000 3001 3002 3003 3005 3007 3009 3011 3012 3013 3013 3013 3013 3012 3011 3010 3009 3008 3007 3005 3003 3001 2998 2996 2993 2991 2989 2986 2983 2980 2976 2973 2968 2964 2961 2958 2955 2953 2951 2949 2947 2946 2944 2943 2942 2941 2940 2939 2939 2938 2937 2936 2935 2935 2934 2934 2935 2937 2938 2939 2940 2943 2945 2948 2951 2954 2958 2961 2964 2965 2967 2970 2973 2976 2980 2983
2978 2980 2982 2984 2987 2989 2991 2993 2994 2997 2998 2999 3000 3003 3005 3007 3009 3009 3009 3010 3010 3009 3009 3008 3007 3005 3004 3002 3000 2998 2996 2994 2991 2989 2986 2983 2980 2977 2973 2970 2966 2962 2957 2953 2950 2947 2945 2942 2941 2939 2937 2935 2934 2932 2931 2930 2929 2929 2929 2928 2926 2925 2924 2923 2923 2924 2925 2927 2928 2930 2933 2935 2938 2941 2945 2949 2953 2955 2957 2958 2962 2966 2969 2973 2977
2972 2975 2977 2980 2983 2984 2986 2989 2992 2994 2995 2996 2998 3000 3003 3005 3006 3006 3006 3007 3007 3006 3005 3004 3003 3001 2999 2997 2995 2994 2992 2989 2986 2983 2980 2976 2973 2970 2966 2963 2959 2955 2950 2946 2943 2939 2936 2934 2932 2930 2928 2925 2924 2922 2920 2919 2919 2918 2918 2918 2916 2915 2914 2914 2914 2915 2916 2917 2919 2921 2924 2927 2929 2933 2936 2940 2943 2945 2948 2950 2954 2959 2963 2967 2971
2967 2971 2974 2977 2979 2982 2985 2989 2991 2992 2993 2995 2997 2999 3001 3003 3003 3003 3004 3004 3004 3003 3002 3000 2998 2996 2994 2992 2990 2988 2986 2983 2980 2976 2973 2969 2966 2963 2959 2956 2952 2948 2944 2940 2936 2932 2928 2926 2923 2920 2918 2915 2913 2912 2910 2910 2910 2909 2909 2909 2908 2907 2906 2907 2907 2907 2908 2910 2912 2914 2916 2919 2922 2924 2927 2929 2932 2936 2939 2942 2946 2951 2956 2960 2964
2964 2967 2969 2973 2977 2982 2985 2988 2989 2991 2993 2995 2997 2998 2999 3000 3001 3001 3001 3001 3000 2999 2998 2996 2994 2992 2990 2987 2985 2982 2979 2976 2973 2969 2966 2962 2959 2956 2952 2949 2945 2941 2937 2932 2928 2924 2920 2917 2915 2912 2909 2907 2905 2904 2902 2902 2902 2901 2902 2902 2901 2900 2900 2901 2901 2901 2902 2903 2905 2908 2910 2912 2914 2915 2918 2920 2923 2928 2932 2934 2938 2944 2950 2955 2958
2962 2964 2967 2971 2977 2982 2985 2987 2989 2991 2993 2994 2995 2996 2997 2998 2999 2999 2999 2998 2997 2996 2994 2992 2990 2987 2985 2982 2979 2976 2974 2970 2967 2963 2959 2955 2952 2948 2945 2941 2937 2933 2928 2923 2919 2916 2913 2910 2907 2905 2902 2900 2899 2898 2896 2895 2895 2895 2895 2895 2895 2895 2895 2895 2895 2895 2896 2899 2900 2902 2904 2905 2906 2908 2911 2914 2917 2921 2925 2928 2931 2937 2943 2949 2952
2964 2967 2970 2974 2978 2982 2985 2987 2989 2991 2992 2993 2993 2994 2996 2997 2997 2997 2996 2995 2994 2992 2990 2988 2985 2983 2980 2977 2974 2971 2968 2965 2962 2958 2953 2949 2945 2941 2937 2933 2928 2924 2920 2915 2911 2908 2906 2903 2901 2899 2897 2895 2894 2893 2892 2891 2890 2889 2889 2889 2889 2889 2889 2889 2889 2891 2893 2894 2895 2896 2898 2899 2900 2902 2905 2908 2911 2915 2919 2922 2925 2931 2937 2942 2947
2969 2972 2974 2977 2980 2983 2985 2987 2989 2990 2991 2992 2993 2993 2994 2995 2995 2994 2994 2993 2991 2989 2986 2984 2981 2979 2977 2974 2971 2968 2964 2960 2956 2952 2948 2944 2940 2936 2932 2927 2922 2917 2913 2909 2906 2903 2900 2898 2896 2894 2893 2891 2890 2890 2888 2887 2886 2886 2886 2885 2885 2885 2885 2885 2885 2887 2888 2889 2889 2891 2892 2893 2895 2898 2900 2903 2907 2911 2914 2917 2920 2925 2931 2937 2942
2973 2975 2977 2979 2981 2984 2986 2988 2988 2989 2990 2990 2991 2991 2992 2993 2993 2992 2991 2989 2988 2985 2983 2981 2979 2976 2974 2971 2969 2965 2961 2957 2952 2948 2943 2939 2935 2931 2926 2922 2917 2912 2908 2904 2901 2898 2896 2893 2892 2891 2890 2889 2887 2886 2885 2884 2883 2883 2882 2882 2881 2881 2881 2881 2882 2882 2883 2883 2884 2885 2887 2888 2890 2893 2896 2899 2903 2907 2910 2912 2915 2920 2926 2932 2938
2975 2977 2979 2981 2983 2985 2986 2987 2987 2988 2988 2988 2989 2990 2991 2991 2990 2989 2988 2986 2984 2983 2981 2979 2977 2974 2971 2968 2965 2961 2957 2953 2949 2944 2940 2935 2930 2926 2921 2916 2912 2908 2904 2901 2898 2895 2892 2890 2889 2888 2887 2886 2885 2884 2882 2881 2880 2879 2878 2878 2878 2878 2877 2877 2877 2877 2877 2878 2878 2879 2881 2883 2886 2889 2892 2895 2899 2902 2905 2908 2911 2916 2922 2928 2935
2977 2979 2981 2983 2984 2985 2985 2986 2986 2987 2987 2987 2987 2988 2989 2988 2987 2986 2985 2984 2982 2981 2979 2977 2975 2972 2969 2965 2962 2958 2954 2949 2945 2941 2936 2932 2927 2922 2917 2912 2907 2903 2901 2897 2894 2892 2890 2888 2887 2886 2884 2883 2882 2881 2880 2878 2877 2876 2876 2875 2875 2875 2874 2874 2873 2873 2873 2873 2873 2873 2875 2878 2881 2884 2887 2890 2894 2898 2901 2904 2908 2912 2918 2925 2931
2979 2981 2982 2983 2984 2984 2985 2985 2986 2986 2987 2986 2986 2987 2986 2986 2985 2985 2984 2983 2982 2980 2978 2975 2972 2970 2967 2964 2960 2957 2952 2948 2943 2939 2934 2929 2923 2918 2913 2909 2905 2901 2898 2894 2891 2889 2887 2886 2885 2883 2882 2880 2879 2878 2877 2876 2875 2874 2874 2873 2873 2872 2872 2872 2871 2871 2870 2869 2868 2868 2869 2872 2875 2879 2882 2886 2890 2894 2897 2901 2905 2909 2915 2922 2928
2981 2982 2982 2983 2984 2984 2985 2985 2986 2986 2986 2986 2985 2985 2985 2984 2984 2984 2983 2982 2981 2979 2976 2974 2971 2968 2966 2963 2960 2956 2952 2947 2942 2937 2931 2926 2920 2915 2911 2906 2903 2899 2895 2892 2889 2887 2884 2883 2882 2880 2879 2877 2876 2875 2875 2874 2873 2873 2873 2872 2871 2871 2870 2870 2869 2868 2868 2867 2865 2864 2864 2867 2870 2874 2878 2882 2886 2890 2894 2898 2902 2908 2914 2920 2925
2982 2983 2983 2984 2984 2984 2985 2985 2986 2985 2985 2985 2984 2984 2984 2984 2983 2983 2982 2980 2979 2977 2975 2973 2970 2968 2965 2962 2959 2955 2951 2946 2941 2936 2930 2924 2918 2913 2907 2903 2899 2896 2892 2890 2887 2885 2882 2880 2879 2878 2876 2875 2874 2873 2872 2872 2872 2872 2871 2871 2870 2870 2869 2868 2867 2866 2866 2865 2864 2863 2862 2863 2866 2870 2874 2878 2883 2887 2891 2896 2901 2906 2912 2917 2921
2982 2983 2984 2984 2984 2985 2985 2985 2985 2985 2984 2984 2983 2983 2983 2983 2983 2982 2980 2979 2977 2975 2973 2972 2970 2968 2965 2962 2959 2955 2950 2946 2941 2935 2930 2924 2918 2911 2906 2901 2897 2893 2890 2887 2885 2882 2880 2879 2877 2875 2874 2872 2872 2871 2870 2870 2870 2870 2870 2870 2869 2869 2868 2867 2866 2865 2864 2863 2863 2862 2861 2862 2864 2868 2872 2877 2881 2886 2891 2896 2901 2906 2910 2915 2919
2982 2983 2983 2984 2984 2985 2985 2984 2984 2984 2983 2983 2983 2983 2983 2982 2982 2981 2979 2978 2976 2974 2973 2971 2969 2967 2964 2961 2958 2954 2949 2945 2941 2935 2929 2923 2917 2911 2906 2901 2896 2892 2888 2885 2883 2880 2878 2876 2874 2873 2871 2870 2869 2869 2868 2868 2868 2869 2869 2869 2868 2868 2867 2866 2865 2864 2863 2862 2862 2862 2862 2863 2865 2869 2873 2878 2882 2887 2892 2896 2901 2906 2910 2914 2917
2982 2983 2983 2984 2984 2984 2984 2984 2983 2983 2982 2983 2984 2984 2983 2982 2981 2980 2978 2977 2975 2973 2972 2970 2968 2966 2963 2960 2956 2952 2948 2943 2939 2933 2928 2922 2916 2911 2906 2901 2896 2892 2887 2884 2881 2878 2876 2874 2873 2871 2870 2868 2868 2867 2867 2867 2867 2867 2868 2867 2867 2867 2866 2865 2864 2864 2863 2862 2862 2862 2862 2865 2868 2871 2876 2880 2885 2890 2894 2898 2902 2906 2909 2912 2915
2982 2982 2983 2983 2984 2983 2983 2983 2982 2982 2983 2983 2984 2983 2982 2981 2980 2979 2978 2976 2975 2973 2971 2970 2968 2965 2962 2959 2955 2951 2947 2942 2937 2932 2927 2922 2916 2910 2905 2900 2896 2892 2887 2883 2880 2877 2875 2873 2871 2870 2868 2867 2866 2866 2865 2865 2866 2866 2866 2866 2866 2866 2866 2866 2865 2864 2863 2863 2863 2863 2864 2867 2871 2875 2879 2883 2888 2892 2895 2899 2902 2905 2907 2911 2914
2982 2982 2982 2983 2983 2983 2982 2982 2982 2982 2983 2983 2983 2983 2981 2980 2979 2979 2977 2976 2974 2973 2971 2969 2967 2964 2961 2958 2955 2951 2946 2942 2938 2933 2928 2922 2916 2911 2905 2901 2897 2892 2888 2884 2880 2877 2875 2872 2871 2869 2868 2867 2866 2865 2864 2864 2865 2865 2865 2865 2866 2866 2866 2866 2866 2865 2864 2864 2866 2867 2868 2871 2875 2879 2883 2886 2889 2892 2896 2898 2900 2903 2906 2909 2912
2981 2982 2982 2982 2982 2981 2981 2981 2982 2982 2983 2983 2982 2982 2981 2980 2979 2978 2977 2975 2974 2973 2971 2969 2967 2964 2961 2958 2955 2951 2947 2943 2939 2934 2929 2923 2918 2912 2907 2902 2898 2893 2889 2884 2881 2877 2875 2872 2870 2869 2867 2866 2865 2864 2863 2863 2864 2864 2865 2865 2865 2866 2866 2866 2866 2867 2866 2867 2870 2872 2873 2875 2879 2882 2885 2888 2890 2893 2896 2899 2900 2902 2905 2908 2911
2981 2981 2981 2981 2981 2981 2981 2981 2982 2982 2982 2982 2982 2981 2981 2980 2979 2977 2976 2975 2974 2972 2970 2969 2967 2964 2961 2958 2955 2952 2948 2944 2940 2935 2930 2924 2919 2914 2909 2904 2899 2895 2890 2886 2881 2878 2875 2873 2871 2869 2867 2866 2865 2864 2863 2863 2863 2863 2864 2864 2865 2866 2866 2867 2868 2869 2869 2870 2872 2875 2877 2878 2881 2884 2887 2889 2891 2894 2897 2899 2901 2902 2904 2908 2911
2980 2980 2980 2980 2980 2981 2981 2981 2982 2982 2981 2981 2981 2981 2980 2979 2978 2977 2976 2975 2973 2972 2970 2968 2966 2964 2961 2958 2956 2952 2949 2945 2940 2936 2931 2926 2921 2916 2911 2906 2901 2896 2892 2888 2883 2880 2876 2874 2871 2869 2868 2866 2865 2864 2863 2863 2863 2863 2864 2864 2865 2866 2867 2868 2869 2871 2871 2872 2874 2877 2879 2881 2883 2886 2888 2889 2891 2894 2897 2899 2901 2902 2905 2908 2911
2979 2979 2979 2980 2980 2980 2981 2981 2981 2981 2980 2980 2980 2980 2979 2978 2977 2976 2975 2974 2973 2971 2970 2968 2966 2964 2961 2958 2956 2952 2949 2945 2941 2937 2932 2927 2922 2917 2913 2908 2903 2898 2894 2890 2886 2882 2878 2875 2872 2870 2868 2867 2866 2865 2864 2863 2863 2863 2863 2864 2865 2866 2868 2869 2871 2872 2873 2874 2876 2878 2881 2883 2885 2887 2888 2890 2892 2894 2897 2899 2901 2903 2906 2909 2911
2979 2979 2979 2980 2980 2980 2980 2980 2980 2980 2980 2979 2979 2978 2978 2977 2976 2975 2974 2973 2972 2970 2969 2967 2965 2963 2961 2959 2956 2953 2949 2946 2942 2938 2933 2929 2924 2919 2915 2910 2905 2900 2896 2892 2888 2884 2880 2877 2874 2871 2869 2868 2867 2866 2865 2864 2864 2864 2864 2864 2866 2867 2869 2870 2872 2873 2874 2875 2877 2879 2882 2884 2886 2887 2889 2890 2893 2895 2898 2899 2901 2904 2906 2909 2912
2978 2979 2979 2979 2980 2980 2980 2980 2979 2979 2979 2978 2978 2977 2976 2975 2975 2974 2973 2972 2971 2969 2968 2966 2965 2963 2961 2959 2956 2953 2949 2946 2942 2938 2934 2930 2926 2921 2917 2912 2908 2903 2899 2895 2891 2887 2883 2880 2876 2873 2871 2869 2868 2867 2867 2866 2865 2864 2864 2865 2866 2868 2869 2871 2872 2873 2875 2876 2878 2880 2883 2885 2886 2888 2890 2892 2894 2896 2898 2900 2902 2904 2907 2909 2911
2978 2978 2979 2979 2979 2979 2979 2979 2979 2979 2978 2978 2977 2976 2975 2974 2973 2972 2971 2971 2970 2968 2967 2965 2964 2962 2960 2958 2956 2953 2949 2946 2943 2939 2936 2932 2927 2923 2919 2915 2911 2906 2902 2897 2893 2890 2886 2882 2879 2876 2873 2872 2870 2869 2869 2868 2866 2866 2865 2866 2867 2868 2870 2871 2873 2874 2875 2876 2878 2880 2883 2885 2887 2889 2891 2893 2895 2897 2899 2901 2903 2905 2907 2909 2911
2978 2978 2978 2979 2979 2979 2979 2979 2979 2978 2978 2977 2976 2976 2975 2974 2973 2972 2971 2970 2969 2967 2966 2965 2963 2962 2960 2958 2956 2953 2950 2947 2944 2941 2937 2933 2929 2925 2920 2916 2913 2909 2904 2900 2896 2892 2889 2886 2882 2879 2876 2874 2873 2872 2871 2870 2869 2868 2867 2867 2868 2869 2870 2872 2873 2875 2876 2878 2879 2881 2884 2886 2888 2890 2892 2894 2896 2898 2900 2902 2903 2905 2907 2909 2910
2977 2978 2978 2978 2979 2979 2979 2979 2978 2978 2977 2977 2976 2975 2974 2973 2972 2971 2970 2969 2968 2967 2965 2964 2962 2961 2959 2957 2955 2953 2951 2948 2945 2942 2938 2935 2931 2927 2923 2919 2915 2911 2907 2903 2899 2896 2892 2889 2886 2883 2880 2877 2875 2874 2873 2873 2871 2870 2869 2869 2870 2871 2872 2873 2874 2876 2878 2879 2881 2882 2885 2887 2889 2891 2893 2895 2897 2898 2900 2902 2904 2905 2907 2909 2911
2977 2978 2978 2978 2978 2978 2978 2978 2978 2978 2977 2976 2976 2975 2974 2973 2972 2971 2970 2969 2967 2966 2965 2963 2962 2960 2959 2957 2955 2953 2951 2948 2945 2942 2939 2937 2933 2929 2926 2922 2918 2914 2911 2907 2903 2900 2896 2892 2889 2886 2884 2881 2879 2878 2876 2875 2874 2873 2872 2872 2872 2872 2873 2874 2875 2877 2879 2881 2882 2884 2886 2888 2890 2892 2894 2895 2897 2899 2901 2902 2904 2906 2908 2910 2912